Total_Precipitation_Accumulation
0.22 0.15 0.14 0.20 0.22 0.19 0.09 0.07 0.06 0.03 0.03 0.03 0.03 0.03 0.04 0.06 0.08 0.15 0.14 0.11 0.12 0.18 0.28 0.54 0.87 1.01 1.03 1.06 1.05 1.07 0.98 0.95 0.98 1.09 1.17 1.18 1.15 1.07 1.12 1.16 1.21 1.27 1.30 1.25 1.19 1.12 1.02 0.85 0.75
0.19 0.20 0.24 0.33 0.25 0.16 0.09 0.07 0.10 0.06 0.05 0.04 0.04 0.04 0.04 0.05 0.06 0.09 0.15 0.15 0.12 0.19 0.32 0.51 0.82 1.02 1.09 1.09 1.06 1.05 1.01 1.05 1.06 1.10 1.18 1.20 1.16 1.08 1.10 1.18 1.20 1.26 1.31 1.32 1.25 1.13 1.04 0.85 0.74
0.24 0.29 0.35 0.37 0.25 0.16 0.13 0.09 0.12 0.10 0.09 0.05 0.05 0.06 0.06 0.08 0.07 0.09 0.14 0.14 0.17 0.25 0.36 0.58 0.88 1.07 1.15 1.15 1.09 1.05 1.05 1.09 1.13 1.15 1.22 1.23 1.22 1.12 1.06 1.06 1.10 1.16 1.21 1.25 1.28 1.11 1.00 0.88 0.76
0.36 0.45 0.45 0.37 0.22 0.15 0.11 0.10 0.13 0.13 0.11 0.07 0.06 0.07 0.05 0.07 0.08 0.10 0.15 0.17 0.21 0.28 0.37 0.60 0.90 1.11 1.15 1.15 1.15 1.08 1.09 1.15 1.17 1.20 1.30 1.31 1.27 1.19 1.11 1.06 1.05 1.02 1.06 1.13 1.15 1.07 1.01 0.90 0.78
0.46 0.55 0.50 0.34 0.18 0.11 0.08 0.08 0.11 0.12 0.11 0.09 0.07 0.06 0.09 0.10 0.11 0.14 0.19 0.23 0.28 0.37 0.46 0.66 0.95 1.17 1.23 1.25 1.24 1.20 1.18 1.22 1.26 1.26 1.32 1.40 1.34 1.32 1.21 1.09 1.03 0.96 0.94 0.97 1.00 0.96 0.96 0.92 0.83
0.63 0.58 0.42 0.29 0.18 0.08 0.06 0.08 0.10 0.11 0.12 0.11 0.09 0.07 0.12 0.16 0.18 0.21 0.25 0.32 0.37 0.46 0.60 0.79 1.13 1.31 1.42 1.46 1.41 1.38 1.40 1.44 1.42 1.42 1.44 1.49 1.43 1.35 1.28 1.15 1.07 1.02 1.00 1.00 0.97 0.93 0.92 0.92 0.89
0.62 0.52 0.31 0.24 0.18 0.11 0.07 0.09 0.10 0.11 0.14 0.13 0.12 0.11 0.15 0.21 0.24 0.26 0.31 0.38 0.46 0.56 0.72 0.86 1.08 1.32 1.59 1.74 1.73 1.64 1.59 1.60 1.58 1.55 1.57 1.58 1.55 1.51 1.44 1.33 1.20 1.16 1.13 1.09 0.98 0.87 0.81 0.81 0.84
0.62 0.59 0.34 0.22 0.20 0.13 0.10 0.10 0.11 0.15 0.17 0.16 0.15 0.12 0.16 0.24 0.27 0.33 0.40 0.48 0.56 0.69 0.82 0.97 1.14 1.32 1.54 1.74 1.88 1.79 1.66 1.63 1.69 1.70 1.65 1.67 1.63 1.63 1.60 1.45 1.29 1.21 1.19 1.11 1.02 0.93 0.85 0.76 0.71
0.74 0.75 0.40 0.22 0.19 0.16 0.14 0.15 0.14 0.16 0.20 0.23 0.19 0.15 0.17 0.25 0.33 0.43 0.53 0.64 0.73 0.84 0.95 1.06 1.25 1.39 1.60 1.79 1.83 1.86 1.80 1.75 1.75 1.69 1.64 1.66 1.62 1.57 1.53 1.38 1.34 1.30 1.26 1.19 1.13 1.04 0.91 0.77 0.63
0.86 0.69 0.36 0.20 0.18 0.18 0.19 0.21 0.20 0.22 0.25 0.29 0.27 0.22 0.23 0.34 0.45 0.48 0.52 0.58 0.72 0.88 1.01 1.10 1.28 1.40 1.59 1.62 1.78 1.93 1.84 1.77 1.72 1.58 1.57 1.52 1.53 1.55 1.44 1.42 1.39 1.37 1.35 1.32 1.29 1.20 1.06 0.88 0.68
0.73 0.52 0.28 0.20 0.18 0.18 0.23 0.22 0.20 0.26 0.26 0.29 0.28 0.25 0.30 0.42 0.54 0.56 0.57 0.58 0.66 0.85 1.06 1.15 1.31 1.45 1.56 1.62 1.65 1.79 1.81 1.76 1.70 1.62 1.58 1.57 1.61 1.65 1.56 1.48 1.48 1.41 1.35 1.34 1.34 1.28 1.06 0.92 0.81
0.55 0.37 0.26 0.23 0.21 0.23 0.26 0.21 0.20 0.24 0.24 0.25 0.29 0.27 0.32 0.44 0.52 0.59 0.66 0.68 0.75 0.92 1.10 1.24 1.44 1.58 1.62 1.68 1.72 1.74 1.82 1.80 1.70 1.67 1.64 1.63 1.62 1.61 1.56 1.43 1.37 1.34 1.35 1.36 1.34 1.28 1.12 0.98 0.82
0.44 0.32 0.27 0.26 0.26 0.26 0.27 0.23 0.20 0.22 0.22 0.27 0.36 0.33 0.33 0.42 0.52 0.64 0.78 0.84 0.87 0.97 1.14 1.33 1.55 1.67 1.71 1.76 1.82 1.80 1.79 1.75 1.71 1.64 1.64 1.59 1.55 1.53 1.51 1.42 1.37 1.36 1.31 1.25 1.21 1.17 1.09 0.97 0.86
0.38 0.33 0.31 0.32 0.35 0.30 0.31 0.26 0.21 0.20 0.21 0.31 0.40 0.37 0.36 0.47 0.56 0.67 0.82 0.95 0.98 1.02 1.16 1.37 1.57 1.69 1.75 1.76 1.78 1.76 1.78 1.74 1.72 1.65 1.56 1.54 1.53 1.51 1.50 1.48 1.44 1.40 1.36 1.30 1.24 1.17 1.13 1.01 0.90
0.44 0.49 0.46 0.39 0.37 0.37 0.38 0.34 0.21 0.17 0.19 0.33 0.41 0.40 0.40 0.51 0.63 0.67 0.75 0.88 1.01 1.10 1.28 1.50 1.69 1.82 1.84 1.83 1.84 1.83 1.78 1.77 1.72 1.67 1.67 1.60 1.53 1.48 1.48 1.49 1.46 1.38 1.34 1.33 1.31 1.30 1.29 1.19 1.05
0.65 0.76 0.68 0.45 0.34 0.34 0.54 0.50 0.21 0.16 0.22 0.35 0.48 0.46 0.41 0.50 0.64 0.72 0.77 0.88 1.04 1.22 1.36 1.55 1.80 1.92 1.90 1.91 1.93 1.94 1.84 1.77 1.78 1.72 1.71 1.68 1.62 1.56 1.60 1.57 1.49 1.44 1.45 1.37 1.29 1.26 1.26 1.21 1.12
0.95 0.88 0.62 0.43 0.35 0.36 0.52 0.50 0.24 0.22 0.26 0.34 0.47 0.52 0.48 0.52 0.68 0.82 0.87 0.90 1.09 1.22 1.28 1.51 1.78 1.93 1.94 1.98 1.98 2.04 2.01 1.90 1.87 1.83 1.74 1.68 1.66 1.61 1.63 1.63 1.57 1.52 1.55 1.51 1.38 1.28 1.18 1.11 1.04
0.80 0.64 0.53 0.45 0.41 0.45 0.44 0.38 0.25 0.26 0.28 0.31 0.39 0.51 0.55 0.52 0.58 0.75 0.89 0.96 1.11 1.31 1.40 1.52 1.78 1.92 2.05 2.13 2.17 2.16 2.14 2.05 1.98 1.93 1.77 1.68 1.69 1.70 1.65 1.61 1.56 1.53 1.52 1.53 1.49 1.39 1.27 1.13 1.04
0.54 0.55 0.55 0.46 0.41 0.56 0.51 0.41 0.30 0.29 0.27 0.32 0.42 0.46 0.53 0.52 0.56 0.70 0.86 1.03 1.20 1.34 1.43 1.51 1.70 1.80 2.03 2.20 2.13 2.06 2.01 1.99 1.94 1.90 1.90 1.83 1.84 1.84 1.78 1.71 1.68 1.62 1.53 1.41 1.41 1.42 1.43 1.35 1.25
0.66 0.69 0.62 0.52 0.46 0.61 0.60 0.47 0.34 0.32 0.31 0.32 0.39 0.44 0.48 0.50 0.57 0.66 0.82 0.96 1.10 1.22 1.29 1.37 1.58 1.77 1.94 2.09 2.07 1.98 1.96 1.94 1.92 1.87 1.93 2.01 2.02 1.99 1.89 1.75 1.71 1.69 1.63 1.52 1.40 1.40 1.44 1.38 1.37
0.69 0.64 0.58 0.56 0.56 0.63 0.68 0.62 0.40 0.33 0.30 0.33 0.38 0.44 0.50 0.48 0.52 0.58 0.71 0.86 0.98 1.11 1.17 1.30 1.54 1.73 1.96 2.13 2.28 2.24 2.24 2.23 2.15 2.01 1.90 1.89 1.93 1.88 1.81 1.71 1.65 1.67 1.67 1.61 1.48 1.39 1.37 1.35 1.27
0.70 0.45 0.48 0.59 0.85 0.97 0.81 0.92 0.51 0.37 0.33 0.34 0.37 0.39 0.45 0.48 0.52 0.59 0.67 0.79 0.89 1.00 1.09 1.22 1.53 1.77 1.95 2.12 2.22 2.28 2.24 2.17 2.05 1.93 1.86 1.80 1.75 1.75 1.72 1.70 1.63 1.55 1.52 1.46 1.41 1.37 1.33 1.32 1.31
0.61 0.43 0.50 0.70 0.95 1.06 0.80 0.93 0.58 0.38 0.42 0.41 0.39 0.38 0.38 0.42 0.48 0.57 0.65 0.76 0.88 1.00 1.04 1.14 1.37 1.63 1.86 2.06 2.13 2.21 2.18 2.09 2.05 2.05 2.02 2.00 1.91 1.80 1.76 1.71 1.71 1.62 1.52 1.43 1.40 1.40 1.38 1.35 1.29
0.68 0.77 0.88 1.02 1.49 1.68 0.70 0.68 0.57 0.47 0.54 0.48 0.42 0.39 0.35 0.39 0.44 0.55 0.66 0.73 0.86 1.08 1.12 1.16 1.26 1.46 1.72 1.91 1.99 2.02 2.05 2.01 1.99 2.04 2.03 2.01 1.92 1.80 1.69 1.67 1.66 1.62 1.51 1.39 1.35 1.36 1.39 1.38 1.31
1.12 1.63 2.40 2.55 2.52 1.50 0.41 0.48 0.58 0.47 0.45 0.48 0.48 0.40 0.35 0.39 0.45 0.51 0.60 0.74 0.82 1.00 1.11 1.18 1.25 1.30 1.49 1.73 1.84 1.81 1.88 1.87 1.84 1.89 1.88 1.85 1.81 1.73 1.65 1.54 1.48 1.45 1.42 1.40 1.35 1.33 1.31 1.32 1.37
1.22 1.51 1.93 1.81 1.27 0.64 0.32 0.40 0.47 0.41 0.38 0.38 0.42 0.40 0.37 0.38 0.45 0.48 0.50 0.68 0.83 0.91 1.01 1.12 1.21 1.26 1.36 1.48 1.64 1.69 1.82 1.81 1.76 1.79 1.81 1.76 1.68 1.59 1.56 1.54 1.45 1.32 1.27 1.31 1.35 1.33 1.28 1.29 1.34
1.05 1.20 1.07 1.34 0.92 0.64 0.48 0.34 0.32 0.28 0.29 0.29 0.36 0.40 0.42 0.43 0.46 0.50 0.52 0.63 0.78 0.84 0.92 1.05 1.17 1.28 1.32 1.33 1.47 1.56 1.65 1.71 1.66 1.64 1.66 1.66 1.62 1.59 1.60 1.55 1.53 1.44 1.33 1.27 1.28 1.28 1.24 1.27 1.27
0.83 0.96 1.27 1.80 1.50 0.84 0.46 0.32 0.40 0.36 0.36 0.32 0.34 0.41 0.44 0.46 0.45 0.50 0.56 0.63 0.74 0.82 0.89 1.00 1.07 1.24 1.40 1.37 1.39 1.52 1.56 1.61 1.63 1.58 1.54 1.46 1.44 1.51 1.62 1.62 1.55 1.56 1.52 1.44 1.34 1.27 1.23 1.29 1.31
0.84 1.14 1.45 1.61 1.33 1.02 0.62 0.48 0.48 0.43 0.41 0.42 0.41 0.47 0.51 0.51 0.49 0.51 0.61 0.68 0.73 0.79 0.86 1.02 1.09 1.18 1.40 1.48 1.44 1.46 1.54 1.57 1.63 1.61 1.51 1.38 1.32 1.36 1.47 1.55 1.55 1.55 1.56 1.52 1.48 1.38 1.33 1.34 1.34
0.70 0.91 1.15 1.56 1.26 0.84 0.72 0.51 0.37 0.34 0.35 0.37 0.41 0.46 0.54 0.55 0.57 0.58 0.67 0.72 0.73 0.78 0.84 0.97 1.03 1.12 1.30 1.47 1.55 1.51 1.53 1.63 1.66 1.59 1.52 1.46 1.39 1.35 1.39 1.53 1.64 1.62 1.59 1.55 1.54 1.50 1.49 1.52 1.48